This demonstration page uses our WeatherBlox Daily Observations layout. Learn more.

Left ArrowRight Arrow

34.74481, -87.66753

Hourly Observations for December 20, 2020

Temp ( °F °C ) Dew Point ( °F °C ) Humidity (%) Winds ( mph kmh ) Pressure ( in mb ) Visibility ( mi km ) Precip ( " mm )
12:53 am 00:53 Cloudy with Light Rain 47 8.3 39 3.9 74 74 S 8 13 30.07 1018 5 8 0.02 0.51
1:53 am 01:53 Cloudy 46 7.8 42 5.6 86 86 Calm 30.07 1018 8 13 0.01 0.25
2:53 am 02:53 Cloudy with Light Rain 46 7.8 41 5 83 83 ESE 3 6 30.06 1018 4 6 0.01 0.25
3:24 am 03:24 Cloudy 46 7.8 41 5 83 83 Calm 30.07 1018 9 14 0.00 0.00
3:53 am 03:53 Cloudy 46 7.8 41 5 83 83 Calm 30.06 1018 7 11 0.00 0.00
4:53 am 04:53 Cloudy 46 7.8 41 5 83 83 ESE 3 6 30.06 1018 8 13 0.00 0.00
5:53 am 05:53 Cloudy 46 7.8 41 5 83 83 Calm 30.06 1018 8 13 0.00 0.00
6:53 am 06:53 Cloudy 46 7.8 41 5 83 83 ESE 5 7 30.05 1018 8 13 0.00 0.00
7:17 am 07:17 Cloudy with Haze 46 7.8 41 5 83 83 SE 5 7 30.06 1018 6 10 0.00 0.00
7:53 am 07:53 Cloudy 47 8.3 42 5.6 83 83 Calm 30.06 1018 8 13 0.00 0.00
8:53 am 08:53 Cloudy 47 8.3 41 5 80 80 Calm 30.07 1018 9 14 0.00 0.00
9:53 am 09:53 Cloudy with Haze 48 8.9 43 6.1 83 83 Calm 30.06 1018 3 4 0.00 0.00
10:04 am 10:04 Cloudy with Haze 49 9.4 43 6.1 80 80 Calm 30.07 1018 3 5 0.00 0.00
10:35 am 10:35 Cloudy with Haze 49 9.4 43 6.1 80 80 NW 5 7 30.07 1018 2 3 0.00 0.00
10:53 am 10:53 Cloudy with Haze 50 10 44 6.7 80 80 WNW 5 7 30.05 1018 4 6 0.00 0.00
11:25 am 11:25 Cloudy with Haze 50 10 44 6.7 80 80 W 7 11 30.04 1017 5 8 0.00 0.00
11:53 am 11:53 Cloudy with Haze 50 10 45 7.2 83 83 W 3 6 30.00 1016 6 10 0.00 0.00
12:53 pm 12:53 Cloudy 52 11.1 45 7.2 77 77 WNW 5 7 29.99 1016 10 16 0.00 0.00
1:19 pm 13:19 Cloudy 52 11.1 45 7.2 77 77 NNW 7 11 30.00 1016 10 16 0.00 0.00
1:29 pm 13:29 Cloudy 51 10.6 45 7.2 80 80 NW 6 9 30.00 1016 9 14 0.00 0.00
1:53 pm 13:53 Cloudy 51 10.6 44 6.7 77 77 NNW 7 11 29.98 1015 8 13 0.00 0.00
2:13 pm 14:13 Cloudy 52 11.1 44 6.7 75 75 NNW 3 6 29.99 1015 10 16 0.00 0.00
2:53 pm 14:53 Mostly Cloudy 53 11.7 43 6.1 69 69 Calm 29.97 1015 10 16 0.00 0.00
3:18 pm 15:18 Mostly Sunny 52 11.1 42 5.6 69 69 NW 3 6 29.99 1015 10 16 0.00 0.00
3:53 pm 15:53 Sunny 52 11.1 43 6.1 72 72 W 3 6 29.98 1015 10 16 0.00 0.00
4:53 pm 16:53 Partly Cloudy 48 8.9 40 4.4 74 74 WNW 3 6 29.99 1016 10 16 0.00 0.00
5:01 pm 17:01 Mostly Cloudy 48 8.9 40 4.4 74 74 WNW 3 6 30.00 1016 10 16 0.00 0.00
5:19 pm 17:19 Partly Cloudy 46 7.8 39 3.9 77 77 W 5 7 30.00 1016 10 16 0.00 0.00
5:53 pm 17:53 Clear 45 7.2 37 2.8 74 74 WNW 5 7 29.99 1016 10 16 0.00 0.00
6:16 pm 18:16 Mostly Cloudy 44 6.7 38 3.3 79 79 W 6 9 30.01 1016 10 16 0.00 0.00
6:53 pm 18:53 Mostly Cloudy 47 8.3 39 3.9 74 74 NW 5 7 30.00 1016 10 16 0.00 0.00
7:03 pm 19:03 Partly Cloudy 46 7.8 39 3.9 77 77 NW 5 7 30.01 1016 10 16 0.00 0.00
7:53 pm 19:53 Clear 41 5 36 2.2 82 82 W 3 6 30.01 1016 9 14 0.00 0.00
8:53 pm 20:53 Clear with Mist and Fog 40 4.4 36 2.2 86 86 Calm 30.01 1016 2 3 0.00 0.00
9:03 pm 21:03 Hazy 42 5.6 36 2.2 79 79 Calm 30.03 1017 5 8 0.00 0.00
9:19 pm 21:19 Clear with Mist and Fog 38 3.3 34 1.1 86 86 Calm 30.02 1017 2 2 0.00 0.00
9:39 pm 21:39 Hazy 39 3.9 34 1.1 82 82 Calm 30.04 1017 1 1 0.00 0.00
9:53 pm 21:53 Hazy 39 3.9 34 1.1 82 82 Calm 30.03 1017 1 1 0.00 0.00
10:20 pm 22:20 Mostly Cloudy with Haze 38 3.3 33 0.6 83 83 Calm 30.04 1017 0 0 0.00 0.00
10:39 pm 22:39 Hazy 37 2.8 32 0 82 82 SW 5 7 30.05 1018 0 0 0.00 0.00
10:49 pm 22:49 Hazy 37 3 32 0 81 81 SW 3 6 30.06 1018 1 1 0.00 0.00
10:53 pm 22:53 Partly Cloudy with Fog 36 2.2 33 0.6 89 89 Calm 30.04 1017 0 0 0.00 0.00
10:57 pm 22:57 Mostly Cloudy with Haze 37 2.8 32 0 82 82 Calm 30.06 1018 1 1 0.00 0.00
11:20 pm 23:20 Cloudy with Mist and Fog 39 3.9 35 1.7 86 86 Calm 30.06 1018 2 2 0.00 0.00
11:27 pm 23:27 Cloudy with Mist and Fog 39 3.9 36 2.2 89 89 Calm 30.06 1018 3 5 0.00 0.00
11:53 pm 23:53 Cloudy with Mist and Fog 41 5 37 2.8 86 86 Calm 30.04 1017 6 10 0.00 0.00

Powered by AerisWeather